Погода в Пустовойтово

Украина / Полтавская область     49°20′12″N   33°23′05″E
темп.,
°C
ветер,
м/с
пор.,
м/с
влажн.,
%
обл.,
%
осадки,
мм/ч
давл.,
гПа
погр.,
м
22 октября, пт
пт2200:00+11ююз9187699 0.0 1010574
03:00+11юз8158490 0.0 1010398
06:00+10юз6128874 0.0 1010312
09:00+12зюз51173100 0.0 1011344
12:00+17з694562 0.0 1012930
15:00+19з58406 0.0 10121453
18:00+14юз335787 0.0 101339
21:00+14зюз3360100 0.0 101457
23 октября, сб
сб2300:00+12з2264100 0.0 101412
03:00+11юз3463100 0.0 101445
06:00+10зюз4106978 0.0 1014181
09:00+12з4965100 0.0 1015404
12:00+13з8113994 0.0 10161131
15:00+14з811363 0.0 10161595
18:00+10сз49465 0.0 1018216
21:00+7зсз36490 0.0 1020108
24 октября, вс
вс2400:00+6зсз411605 0.0 1021272
03:00+4зсз387242 0.0 1021184
06:00+4з38755 0.0 1021150
09:00+7з596582 0.0 1022532
12:00+9зсз695248 0.0 10231559
15:00+7сз71062100 0.1 10231139
18:00+5зсз61164100 0.0 1024820
21:00+4ссз712605 0.2 10251092
25 октября, пн
пн2500:00+3ссз612675 0.0 1026702
03:00+1ссз6127626 0.0 1028603
06:000ссз6118086 0.0 1030434
09:00+1с610765 0.0 1032564
12:00+5с57465 0.0 10331059
15:00+7с56350 0.0 10331307
18:00+4с34460 0.0 103451
21:00+2св33540 0.0 103535
26 октября, вт
вт2600:000в22590 0.0 103621
03:000юв22620 0.0 103612
06:00−1юв22680 0.0 103620
09:00+1юв34584 0.0 1036163
12:00+6ююв34415 0.0 1035734
15:00+8ююв343393 0.0 1033952
18:00+4юв3443100 0.0 103245
21:00+4ююв3446100 0.0 103249